Filters

Adaptors Import to India

Connect2India provides real time data for Adaptors import, historical Adaptors import analysis, current demand in overseas countries and import price of Adaptors.

Adaptors

Adaptors import data

Date HS Code Product Description Origin Port Destination Port Quantity Value (INR in Million) Unit Per Unit (INR)
2016-09-27 84509010 SPARE PARTS FOR WASHING MACHINE- PLASTIC FITTING SET FOR INLET HOSE OF WASHING MACHINE (30000 SETS TAP ADAPTOR) CHINA Nhava Sheva Sea 2273 0.8983 KGS 395.0
2016-09-27 84439990 COATING ADAPTOR 134-135 800100019 PARTS FOR ROTARY SCREEN PRINTING MACHINE NETHERLANDS Ahmedabad 2 0.0117 UNT 5848.0
2016-09-27 84679900 HKW-030-55/11 NOSE ADAPTOR 3-6 HK55/11 (QTY: 1 PCS / CHF 156.00 PER PCS) SWITZERLAND Bombay Air Cargo 0 0.0112 KGS 0.0
2016-09-27 84679900 HKW-070-55 NOSE ADAPTOR 7 HK55 (QTY: 1 PCS / CHF 99.00 PER PCS) SWITZERLAND Bombay Air Cargo 0 0.0071 KGS 0.0
2016-09-27 84689000 WK-702019065 TIP ADAPTOR TWIN (PART OF ROBOTIC WELDING MACHINE) AUSTRIA Chennai Air Cargo 25 0.0334 NOS 1334.0
2016-09-27 84719000 COMPUTER ACCESSORIES: WB-9063A SC SM SIMPLEX ADAPTOR-500 NOS CHINA Chennai Sea 500 0.0022 PCS 4.0
2016-09-27 84719000 COMPUTER ACCESSORIES: WB-9063B SC SM DUPLEX ADAPTOR-500 NOS CHINA Chennai Sea 500 0.0041 PCS 8.0
2016-09-27 39172990 CPVC FITTINGS IN ASTM D 2846 FINOLEX BRAND,IVORY - BRASS THREADED FEMALE ADAPTOR TYPE 1 3/4" (QTY : 150 PCS) CHINA Pune-Talegoan ICD 13 0.0072 KGS 552.0
2016-09-27 39172990 CPVC FITTINGS IN ASTM D 2846 FINOLEX BRAND,IVORY - FEMALE ADAPTOR 1"(QTY : 15360 PCS) CHINA Pune-Talegoan ICD 645 0.1997 KGS 309.0
2016-09-27 39172990 CPVC FITTINGS IN ASTM D 2846 FINOLEX BRAND,IVORY - MALE ADAPTOR 1-1/4" (QTY : 3360 PCS) CHINA Pune-Talegoan ICD 129 0.0391 KGS 303.0
2016-09-27 39172990 CPVC FITTINGS IN ASTM D 2846 FINOLEX BRAND,IVORY - MALE ADAPTOR 1" (QTY : 23400 PCS) CHINA Pune-Talegoan ICD 550 0.1762 KGS 320.0
2016-09-27 39269099 ADAPTOR 12 WAY BACKSHELL 69195288 (CLAMP) (FOR MANUFACTURINGOF WIRING HARNESS) UNITED ARAB EMIRATES Delhi Air Cargo 25 0.0022 NOS 88.0
2016-09-27 39269099 ADAPTOR HOLDER & LOCK SC,MT-603-3-1+2 (MADE UP OF PLASTIC) CHINA Banglore Air Cargo 400 0.0068 PCS 17.0
2016-09-27 39269099 ADAPTOR PLATE MINITERMINAL MIT-605-2-2(MADE UP OF PLASTIC) CHINA Banglore Air Cargo 50 0.0099 PCS 197.0
2016-09-27 85176290 1734-ADN B(POINT I/O DEVICENET NETWORK ADAPTOR(1734-ADN)PARTS OF P.L. CONTROLLER FOR RETAIL SALE) CHINA Delhi Air Cargo 3 0.0137 NOS 4550.0
2016-09-27 85176290 375-3356-02 - PCA,DUAL,4GB,FC,PCI-E HBA ( PCI HOST ADAPTOR )(COO: CHINA )(FOR INTERNAL USE ONLY) CHINA Banglore Air Cargo 1 0.0514 NOS 51412.0
2016-09-27 85176290 PN-138004(POINT I/O DUAL PORT NETWORK ADAPTOR(1734-AENTR)PARTS OF P.L. CONTROLLER FOR RETAIL SALE) CHINA Delhi Air Cargo 65 0.4856 NOS 7470.0
2016-09-27 85176290 PN-183360(POINT I/O ETHERNET NETWORK ADAPTOR(1734-AENT)PARTS OF P.L. CONTROLLER FOR CAPTIVE CONSUMPTION) UNITED STATES Delhi Air Cargo 1 0.0056 NOS 5638.0
2016-09-27 85176290 PN-C154758(POINT I/O DUAL PORT NETWORK ADAPTOR(1734-AENTR)PARTS OF P.L. CONTROLLER FOR CAPTIVE CONSUMPTION) UNITED STATES Delhi Air Cargo 1 0.0075 NOS 7471.0
2016-09-27 85176290 PN-C76365(FLEX ETHERNET/IP ADAPTOR(1794-AENT)PARTS OF P.L. CONTROLLER FOR CAPTIVE CONSUMPTION) UNITED STATES Delhi Air Cargo 1 0.0063 NOS 6253.0
2016-09-27 85176990 PNWAAG3611SX AC ADAPTOR (SERVICE PARTS FOR TELEPHONE) VIETNAM, DEMOCRATIC REP. OF Delhi Air Cargo 250 0.0768 PCS 307.0
2016-09-27 85176990 SH100000355 PCI EXPRESS X8 GEN 3 DUAL (ADAPTOR CARD) UNITED STATES Banglore Air Cargo 1 0.0681 NOS 68085.0
2016-09-27 85159000 ADAPTOR ASSY ADAPTOR (B170-00-3846)INNER RING(IRX70X80X30)COOLING PIPE(B170-00-3775) (PARTS FOR SEAM WELDING MACHINE) JAPAN Banglore Air Cargo 2 0.4404 PCS 220198.0
2016-09-27 85183000 BONE CONDUCTIVE HEADPHONE : RP-HGS10-G (INCLUDE AC ADAPTOR,CABLE) [SAMPLE FOR DEMO PURPOSE ONLY, NOT FOR SALE] JAPAN Delhi Air Cargo 2 0.2895 PCS 144760.0
2016-09-27 85177090 00MY794 MECH LENOVO B300 SLIDE RACK MOUNT KIT (LAN ADAPTOR CARD) MALAYSIA Delhi Air Cargo 2 0.024 PCS 11979.0
2016-09-27 73079910 GHB04 Adaptor AGR1/4" Components for Hydraulic (INDUSTRIAL USE) (100 PC) (COUNTRY OF ORIGIN : IT) GERMANY Kolkata Air Cargo 6 0.0035 KGS 584.0
2016-09-27 73079910 GHB08 Adaptor AGR1/2" Components for Hydraulic (INDUSTRIAL USE) (100 PC) (COUNTRY OF ORIGIN : IT) GERMANY Kolkata Air Cargo 11 0.0067 KGS 605.0
2016-09-27 84199090 ADAPTOR(3323271000)(4050982181873)P/O COFFEE M/C GERMANY Bangalore ICD 40 0.0063 PCS 157.0
2016-09-27 84139190 ADAPTORS (PART OF FIE PUMP) (9 PCS) UNITED KINGDOM Chennai Air Cargo 8 0.0217 KGS 2710.0
2016-09-27 84314390 OILWELL SUPPLIES: STATOR, N.ROTORS PUMP MN-80-1-POS 31 C/W ADAPTOR FOR TEMP UNITED STATES Nhava Sheva Sea 1 0.076 UNT 75954.0
2016-09-27 84314990 10077549 M20-INNER G1 4ED ADAPTOR (168 PCS) (COMPONENTS OF SANY EXCAVATOR) CHINA Pune-Talegoan ICD 10 0.0073 KGS 728.0
2016-09-27 84314990 11419366 SHTDWN ADAPTOR SY215C8M2K.1.3.6-4 (100 PCS) (COMPONENTS OF SANY EXCAVATOR) CHINA Pune-Talegoan ICD 3 0.0069 KGS 2292.0
2016-09-27 84139120 19-000250 STILLING TUBE ADAPTOR FOR 4" CENTRIFUGAL PUMP STILLING TUBE ADAPTOR FOR 4" CENTRIFUGAL PUMP (ACCESSORIES OF SO CHINA Delhi Air Cargo 30 0.0364 SET 1212.0
2016-09-27 84139120 19-000255 STILLING TUBE ADAPTOR FOR 6" CENTRIFUGAL PUMP STILLING TUBE ADAPTOR FOR 6" CENTRIFUGAL PUMP (ACCESSORIES OF SO CHINA Delhi Air Cargo 70 0.1498 SET 2140.0
2016-09-27 73269099 ST ADAPTOR (PNEUMATIC FITTINGS) C02250618 BR-NORGREN KOREA,REPUBLIC OF Delhi Air Cargo 500 0.0101 NOS 20.0
2016-09-27 73269099 ST ADAPTOR (PNEUMATIC FITTINGS) C02250628 BR-NORGREN KOREA,REPUBLIC OF Delhi Air Cargo 400 0.008 NOS 19.0
2016-09-27 73269099 ST ADAPTOR (PNEUMATIC FITTINGS) C02251028 BR-NORGREN KOREA,REPUBLIC OF Delhi Air Cargo 300 0.0081 NOS 26.0
2016-09-27 73269099 ST ADAPTOR (PNEUMATIC FITTINGS) C02251038 BR-NORGREN KOREA,REPUBLIC OF Delhi Air Cargo 100 0.0028 NOS 28.0
2016-09-27 73269099 ST ADAPTOR (PNEUMATIC FITTINGS) C02251238 BR-NORGREN KOREA,REPUBLIC OF Delhi Air Cargo 50 0.0018 NOS 36.0
2016-09-27 73269099 ST ADAPTOR (PNEUMATIC FITTING) C02251038 BR-NORGREN KOREA,REPUBLIC OF Delhi Air Cargo 100 0.0028 NOS 28.0
2016-09-27 73269099 STEM ADAPTOR (PNEUMATIC FITTING) C02251228 BR-NORGREN KOREA,REPUBLIC OF Delhi Air Cargo 50 0.0017 NOS 34.0
2016-09-27 73269099 STR ADAPTOR ( FITTINGS) 97466643PSBP 8BR-NORGREN UNITED KINGDOM Delhi Air Cargo 200 0.0225 NOS 112.0
2016-09-27 73269099 STR MALE ADAPTOR (FITTINGS) 431251028 BR-NORGREN UNITED KINGDOM Delhi Air Cargo 130 0.0077 NOS 59.0
2016-09-27 73269099 STR MALE ADAPTOR (FITTINGS) 431251038 BR-NORGREN UNITED KINGDOM Delhi Air Cargo 30 0.002 NOS 67.0
2016-09-27 73269099 STRAIGHT ADAPTOR (PNEUMATIC FITTINGS) C01250418 BR-NORGREN KOREA,REPUBLIC OF Delhi Air Cargo 100 0.0019 NOS 19.0
2016-09-27 73269099 STRAIGHT ADAPTOR (PNEUMATIC FITTINGS) C01250428 BR-NORGREN KOREA,REPUBLIC OF Delhi Air Cargo 400 0.0079 NOS 19.0
2016-09-27 73269099 STRAIGHT ADAPTOR (PNEUMATIC FITTINGS) C01250828 BR-NORGREN KOREA,REPUBLIC OF Delhi Air Cargo 500 0.0115 NOS 22.0
2016-09-27 73269099 STRAIGHT ADAPTOR (PNEUMATIC FITTINGS) C01251038 BR-NORGREN KOREA,REPUBLIC OF Delhi Air Cargo 100 0.0028 NOS 28.0
2016-09-27 73269099 STRAIGHT ADAPTOR (PNEUMATIC FITTINGS) C01251638 BR-NORGREN KOREA,REPUBLIC OF Delhi Air Cargo 25 0.0021 NOS 83.0
2016-09-27 73269099 STRAIGHT ADAPTOR (PNEUMATIC FITTINGS) C02250405 BR-NORGREN KOREA,REPUBLIC OF Delhi Air Cargo 100 0.0024 NOS 24.0
2016-09-27 73269099 STRAIGHT ADAPTOR (PNEUMATIC FITTINGS) C02250418 BR-NORGREN KOREA,REPUBLIC OF Delhi Air Cargo 200 0.0039 NOS 19.0
2016-09-27 73269099 STRAIGHT ADAPTOR (PNEUMATIC FITTINGS) C02250818 BR-NORGREN KOREA,REPUBLIC OF Delhi Air Cargo 100 0.0023 NOS 22.0
2016-09-27 73269099 STRAIGHT ADAPTOR (PNEUMATIC FITTINGS) C02250828 BR-NORGREN KOREA,REPUBLIC OF Delhi Air Cargo 100 0.0027 NOS 27.0
2016-09-27 73269099 STRAIGHT ADAPTOR (PNEUMATIC FITTINGS) C02260418 BR-NORGREN KOREA,REPUBLIC OF Delhi Air Cargo 100 0.0032 NOS 31.0
2016-09-27 73269099 STRAIGHT ADAPTOR (FITTINGS) 97466631 BR-NORGREN UNITED KINGDOM Delhi Air Cargo 312 0.062 NOS 198.0
2016-09-27 73269099 STRAIGHT ADAPTOR (FITTINGS) 97466633 BR-NORGREN UNITED KINGDOM Delhi Air Cargo 615 0.1204 NOS 195.0
2016-09-27 73269099 STRAIGHT ADAPTOR (FITTINGS) 98453019M BR-NORGREN UNITED KINGDOM Delhi Air Cargo 3000 0.3902 NOS 130.0
2016-09-27 73269099 STRAIGHT ADAPTOR MALE (FITTINGS) 101250818 BR-NORGREN UNITED KINGDOM Delhi Air Cargo 30 0.001 NOS 31.0
2016-09-27 73269099 STRAIGHT STEM ADAPTOR (PNEUMATIC FITTING) C02251248 BR-NORGREN KOREA,REPUBLIC OF Delhi Air Cargo 100 0.0041 NOS 41.0
2016-09-27 73269099 SWIVEL ADAPTOR MALE ( FITTINGS) 102570618 BR-NORGREN UNITED KINGDOM Delhi Air Cargo 4694 0.9347 NOS 199.0
2016-09-27 73269099 SWIVEL ELBOW ADAPTOR MALE ( FITTINGS) 101471238 BR-NORGREN UNITED KINGDOM Delhi Air Cargo 58 0.0109 NOS 188.0
2016-09-27 73269099 SWIVEL ELBOW ADAPTOR MALE ( FITTINGS) 101471248 BR-NORGREN UNITED KINGDOM Delhi Air Cargo 78 0.0127 NOS 163.0
2016-09-27 73269099 SWIVEL ELBOW ADAPTOR (PNEUMATIC FITTING) C02470618 BR-NORGREN KOREA,REPUBLIC OF Delhi Air Cargo 100 0.0024 NOS 24.0
2016-09-27 73269099 SWIVEL ELBOW ADAPTOR (PNEUMATIC FITTING) C02470628 BR-NORGREN KOREA,REPUBLIC OF Delhi Air Cargo 400 0.0107 NOS 26.0
2016-09-27 73269099 SWIVEL ELBOW ADAPTOR (PNEUMATIC FITTING) C02470638 BR-NORGREN KOREA,REPUBLIC OF Delhi Air Cargo 50 0.0017 NOS 33.0
2016-09-27 73269099 SWIVEL TEE ADAPTOR (PNEUMATIC FITTING) C01670828 BR-NORGREN KOREA,REPUBLIC OF Delhi Air Cargo 100 0.0046 NOS 46.0
2016-09-27 73269099 SWIVLE ELBOW ADAPTOR (PNEUMATIC FITTING) C01470618 BR-NORGREN KOREA,REPUBLIC OF Delhi Air Cargo 100 0.0024 NOS 24.0
2016-09-27 73269099 SWIVLE ELBOW ADAPTOR (PNEUMATIC FITTING) C01470828 BR-NORGREN KOREA,REPUBLIC OF Delhi Air Cargo 400 0.0106 NOS 26.0
2016-09-27 73269099 SWIVLE ELBOW ADAPTOR (PNEUMATIC FITTING) C02470618 BR-NORGREN KOREA,REPUBLIC OF Delhi Air Cargo 200 0.0049 NOS 24.0
2016-09-27 73269099 SWIVLE ELBOW ADAPTOR (PNEUMATIC FITTING) C02470628 BR-NORGREN KOREA,REPUBLIC OF Delhi Air Cargo 200 0.0053 NOS 26.0

Adaptors Trade Data - Indian Ports

S. No Product Product Code Quantity Value (INR in Million) Unit Origin Port Destination Port
EXCAVATOR PARTS JCB GP-J19 ADAPTOR-TWIN 84314990 53 0.0828 NOS CHINA Nhava Sheva Sea
ADAPTOR-SEAL / 8500762 84149011 4 0.0177 NOS UNITED STATES Bombay Air Cargo
ADAPTOR (978.25.0011.0 31) 84099911 2 0.0553 PCS UNITED ARAB EMIRATES Chennai Air Cargo
ADAPTOR (AA01339483 31) 84099911 2 0.0596 PCS UNITED ARAB EMIRATES Chennai Air Cargo
ADAPTOR-PART NO:MM434-77401 (PARTS FOR DIESEL ENGINE) 84099990 60 0.052 PCS JAPAN Chennai Sea
ADAPTOR,CYLINDER (PARTS OF ACTUATOR)(2H945807063) 84123900 4 0.0496 NOS KOREA,REPUBLIC OF Chennai Air Cargo
SPL63/M63/M BRASS LQT MULTIPART ADAPTOR 74199990 4 0.0072 PCS UNITED KINGDOM Banglore Air Cargo
4755 RATCHET ADAPTOR 1/2" SQ.DR. (100 PCS) 82042000 27 0.1 KGS JAPAN Nhava Sheva Sea
6755 RATCHET ADAPTOR 3/4" SQ.DR. (100 PCS) 82042000 30 0.2317 KGS JAPAN Nhava Sheva Sea
8755 RATCHET ADAPTOR 1" SQ.DR. (100 PCS) 82042000 30 0.3057 KGS JAPAN Nhava Sheva Sea
332/L7313 - DIN SLAVE PIVOR ADAPTOR K - PARTS FOR EXCAVATOR LOADER - FOR CAPTIVE USE 73261910 100 0.08 NOS UNITED STATES Delhi Air Cargo
332/X1572 - ADAPTOR - PARTS FOR EXCAVATOR LOADER - FOR CAPTIVE USE 73261910 30 0.0222 NOS UNITED KINGDOM Delhi Air Cargo
ADAPTOR - FLANGE ORFS 16 90 DEG. (REACH- STACKER PARTS ) 73261990 25 0.0294 PCS NETHERLANDS Kolkata Sea
WIRE HARNESS - TIER-3 ENGINE ECM ADAPTOR (REACH- STACKER PARTS ) 73261990 5 0.0628 PCS NETHERLANDS Kolkata Sea
TOOL ADAPTORS DRAWBAR LONG 3R-605.11 (ADAPTER TOOLS FOR METAL WORKING) 82079010 1 0.0068 NOS ISRAEL Banglore Air Cargo
GH44-02666A ADAPTOR-ETA0U83IWE ETA0U83IWE,5.0V,1A,UU (STATICCONVERTER FOR MOBILE PHONE) BIS(R-41014915) 85044090 6000 0.7749 PCS VIETNAM, DEMOCRATIC REP. OF Delhi Air Cargo
GH44-02666A ADAPTOR-ETAOU83 IWE (STATIC CONVERTER FOR TELECOMMUNICATION) (BIS REGN. NO. R-41014915) 85044090 1246 0.1722 PCS VIETNAM, DEMOCRATIC REP. OF Delhi Air Cargo
GH44-02753A ADAPTOR-EP-TA50IWE EP-TA50IWE,5.0V,1.55A (STATICCONVERTER FOR MOBILE PHONE) BIS(R-41014915) 85044090 48000 8.4355 PCS VIETNAM, DEMOCRATIC REP. OF Delhi Air Cargo
POWER ADAPTOR FOR XL-200B 85044090 200 0.0264 PCS CHINA Banglore Air Cargo
SMPS ADAPTOR 85044090 3403 0.0475 PCS CHINA Chennai Sea
PART OF A CONVERTER: BC-DC-ADAPTOR-BOARD-1ACHS DAC LACK (FCI) A5E32401109 85049090 6 0.0415 PCS GERMANY Banglore Air Cargo
POWER ADAPTOR MODEL NO AS POE30U-560(G)-C-R MODULES-SPARE PN:AIR-PWRINJ4= (BIS NO. CMD-5/CRS 2015-1890/R-41022365 DTD. 85044010 11 0.0215 NOS CHINA Bombay Air Cargo
TRAVEL ADAPTOR 85044010 50 0.0062 NOS CHINA Banglore Air Cargo
AD-16E AC ADAPTOR/220V (ACC. OF MUSICAL INSTRUMENT) 85044029 100 0.0318 PCS CHINA Kolkata Air Cargo
AD-17E AC ADAPTOR/240V (ACC. OF MUSICAL INSTRUMENT) 85044029 100 0.0208 PCS CHINA Kolkata Air Cargo

Looking to import Adaptors?

With end to end global trade solutions from Connect2India, we enable Indian SMEs to start and grow their business globally

Yearwise analysis of Adaptors import to India

Below is the detailed list of Adaptors import to India with quantity, volume, price, origin port and the destination port.

Increase your Adaptors imports with steady access to working capital with our import financing solutions at Connect2India.

Looking to import Adaptors from genuine and best quality Indian suppliers?

Graphical representation for Adaptors import

Adaptors - Recent import data

How connect2india can help you import Adaptors?

Connect2India can help you find Adaptors suppliers / exporters in more than 100 countries, arrange import orders for Adaptors, find the most effective market to import Adaptors, help you out with procedures and formalities required to import Adaptors in India and also assist you in Adaptors shipment and logistics. Our trade experts are always available for any help regarding the import of Adaptors and its products. If you want more information, please get in touch with our trade experts here

People Also Ask

Whom can I contact for more information on Adaptors import to India?

You can submit your requirement on Connect2India and our representative will get in touch with you with more information about Adaptors. Alternatively, you can call us @ +91-7876759999 or email us to info@connect2India.com

Which is the most popular Indian port for Adaptors import?

Delhi Air Cargo is the most popular port for Adaptors import to India

What are the top three import shipments of Adaptors traded to India?

Following are the top three import shipments of Adaptors traded to India :

  • SPARE PARTS FOR WASHING MACHINE- PLASTIC FITTING SET FOR INLET HOSE OF WASHING MACHINE (30000 SETS TAP ADAPTOR)
  • COATING ADAPTOR 134-135 800100019 PARTS FOR ROTARY SCREEN PRINTING MACHINE
  • HKW-030-55/11 NOSE ADAPTOR 3-6 HK55/11 (QTY: 1 PCS / CHF 156.00 PER PCS)